Location: Mill Neck
(40.8870°N, 73.5551°W)
Time: 01:11:24
(UTC+00:00)

Daily predictions for brighter satellites

Satellite Brightness Start Highest point End
(mag) Time Altitude Azimuth Time Altitude Azimuth Time Altitude Azimuth
NOSS 3-2 (C) 4.3 00:35:15 10° NW 00:43:01 88° WSW 00:51:49 10° SSE
Meteor 1-10 Rocket 4.3 00:37:56 10° S 00:43:21 58° E 00:48:51 10° NNE
Cosmos 1633 Rocket 3.3 00:39:30 10° N 00:43:47 53° E 00:48:01 10° SSE
CENTAUR R/B 3.8 00:39:50 10° NW 00:48:08 60° WSW 00:56:59 10° SSE
Okean O Rocket 4.4 00:47:54 10° SW 00:50:35 16° W 00:53:19 10° NW
Sich 1 4.0 00:46:26 10° NNW 00:50:39 49° W 00:54:48 10° SSW
Cosmos 1743 4.1 00:48:53 10° NNE 00:51:56 23° ENE 00:54:58 10° SE
Meteor 1-27 Rocket 4.2 00:47:11 10° SSE 00:52:34 44° E 00:58:06 10° NNE
Cosmos 2344 3.7 00:47:03 10° S 00:54:30 51° ESE 01:01:36 10° NE
Cosmos 1470 Rocket 4.1 00:51:15 10° N 00:55:20 40° ENE 00:59:24 10° SSE
Tsikada Rocket 4.5 00:49:15 10° NNW 00:55:29 66° W 01:01:37 10° S
Cosmos 44 4.4 00:52:38 10° NW 00:56:33 34° WSW 01:00:29 10° S
Cosmos 2208 Rocket 4.1 00:51:43 10° NNW 00:57:11 88° WSW 01:02:33 10° SSE
OAO 3 Rocket 3.8 00:54:32 10° WSW 00:59:09 41° S 01:03:46 10° ESE
Cosmos 2219 3.3 00:53:39 10° NNW 00:59:16 66° ENE 01:04:49 10° SSE
USA 238 DEB 4.2 00:55:47 10° NW 01:03:07 70° WSW 01:10:47 10° SSE
USA 238 4.2 00:55:54 10° NW 01:03:14 70° WSW 01:10:54 10° SSE
Ariane Rocket 3.6 01:00:46 10° SE 01:05:28 40° ENE 01:10:12 10° N
Cosmos 2082 4.4 01:00:34 10° N 01:05:49 39° ENE 01:10:38 12° SE
Resurs 01 Rocket 2.0 01:02:07 10° SSE 01:06:21 49° ENE 01:10:37 10° N
Cosmos 1515 Rocket 3.8 01:02:51 10° SSE 01:07:03 50° E 01:11:19 10° NNE
Cosmos 2263 Rocket 3.8 01:03:54 10° N 01:08:08 21° NE 01:12:19 10° ESE
Terra 4.0 01:07:53 10° ENE 01:08:50 11° ENE 01:09:47 10° NE
Meteor 1-11 Rocket 3.9 01:03:22 10° N 01:09:21 68° E 01:15:13 10° SSE
Cosmos 921 Rocket 4.2 01:08:46 10° N 01:12:47 30° ENE 01:16:00 14° ESE
PSLV R/B 3.8 01:09:22 10° NNE 01:13:25 79° ESE 01:17:26 10° S
IGS 5A 4.0 01:09:38 10° S 01:13:43 58° W 01:17:50 10° NNW
Landsat 7 3.9 01:10:29 10° SSE 01:15:11 84° WSW 01:19:56 10° NNW
ISS -1.3 01:13:55 10° NNW 01:16:16 17° NNE 01:18:37 10° ENE
Okean-O 4.4 01:14:25 10° SSW 01:18:18 30° W 01:22:11 10° NW
IRAS Rocket 4.3 01:15:00 10° NNE 01:20:36 68° ESE 01:26:12 10° S
Aureole 1 Rocket 2.3 01:18:41 10° SSW 01:22:00 80° WNW 01:25:00 10° NNE
Cosmos 2228 Rocket 4.3 01:21:19 15° SE 01:23:55 25° E 01:27:37 10° NE
Cosmos 2227 Rocket 2.5 01:21:18 10° NNW 01:26:57 67° WSW 01:32:27 10° S
Okean 1 4.0 01:26:46 16° SSE 01:29:26 36° E 01:33:07 10° NNE
Cosmos 1536 2.8 01:25:41 10° N 01:29:44 82° E 01:33:11 14° S
Cosmos 1980 Rocket 2.1 01:27:17 10° SSW 01:32:53 74° ESE 01:38:31 10° NNE
RESURS DK-1 2.7 01:29:54 10° S 01:33:46 41° ESE 01:37:39 10° NE
SL-4 R/B 2.2 01:31:12 10° NW 01:35:46 78° SW 01:38:30 22° SE
ARGOS Delta rocket 4.2 01:31:28 10° N 01:36:59 84° WNW 01:42:21 10° SSW
Cosmos 1777 Rocket 4.4 01:32:58 11° S 01:37:36 41° ESE 01:42:30 10° NNE
Cosmos 1184 Rocket 2.7 01:35:35 10° SSW 01:38:35 75° WNW 01:41:36 10° N
H-2A R/B 3.4 01:35:15 10° N 01:39:05 40° WNW 01:42:55 10° SW
Cosmos 1354 Rocket 4.0 01:33:58 10° S 01:39:12 70° ESE 01:44:29 10° NNE
Spot 2 Rocket 4.4 01:36:14 18° ESE 01:39:12 32° ENE 01:43:39 10° N
SPOT 3 Rocket 3.8 01:38:06 19° SE 01:41:39 55° ENE 01:46:40 10° N
Cosmos 2322 Rocket 3.8 01:41:31 15° ESE 01:41:59 15° E 01:45:02 10° ENE
Cosmos 2369 3.8 01:37:27 10° SSW 01:43:05 80° WNW 01:48:47 10° NNE
IRS-1A Rocket 4.5 01:38:35 11° S 01:44:02 72° WSW 01:49:50 10° NNW
Cosmos 1464 Rocket 4.1 01:40:18 10° S 01:46:31 81° W 01:52:42 10° N
ARIANE 5 R/B 4.4 01:46:14 15° E 01:48:04 19° ENE 01:51:13 10° NNE
Cosmos 1697 Rocket 4.1 01:46:29 10° SW 01:51:48 40° WNW 01:57:07 10° N
Meteor 1-19 Rocket 4.1 01:46:54 12° S 01:51:51 67° E 01:57:13 10° NNE
Cosmos 389 Rocket 3.0 01:51:11 10° NNW 01:54:38 55° W 01:56:49 20° S
CZ-4B R/B 3.4 01:53:23 10° NNW 01:56:09 27° WNW 01:58:51 10° SW
Cosmos 1975 3.9 01:56:01 10° NNE 01:59:37 30° ENE 02:00:36 26° ESE
MetOp-B 4.2 01:56:39 19° S 02:00:34 80° WSW 02:05:58 10° NNW
Cosmos 1092 Rocket 4.3 01:56:50 10° N 02:02:50 51° ENE 02:06:04 26° SE
ATLAS 2AS CENTAUR R/B 3.0 01:55:18 10° SSW 02:03:08 88° ESE 02:10:48 10° NE
Cosmos 2297 Rocket 4.2 01:59:08 10° NW 02:03:17 21° W 02:07:25 10° SSW
Nadezhda 4 Rocket 3.9 01:57:12 10° N 02:03:27 89° W 02:07:53 20° S
Meteor 2-14 Rocket 4.4 01:58:45 10° N 02:04:52 79° E 02:08:48 23° SSE
GENESIS II 4.3 02:04:45 36° SSE 02:05:48 46° ESE 02:09:33 10° NE
Cosmos 1634 Rocket 4.3 02:03:53 25° SSE 02:07:13 48° E 02:13:06 10° NNE
Helios 1A Rocket 2.8 02:07:26 37° SSE 02:08:54 69° ENE 02:12:53 10° N
EXPRESS MD2 3.1 02:04:54 10° WNW 02:10:06 68° SW 02:10:54 47° SSE
Cosmos 1933 Rocket 4.5 02:07:10 10° NNW 02:11:27 46° W 02:14:37 17° SSW
Meteor 2-9 Rocket 4.2 02:08:45 10° N 02:14:31 89° W 02:17:43 27° S
ERS-1 Rocket 3.1 02:12:29 32° SE 02:14:39 58° ENE 02:19:36 10° N
Cosmos 1733 Rocket 4.1 02:14:12 10° NNE 02:18:10 31° ENE 02:18:59 28° E
CZ-2C R/B 3.8 02:15:44 10° NNE 02:20:30 66° ESE 02:22:29 34° S
SJ 16-02 2.1 02:16:41 10° SW 02:20:56 51° WNW 02:25:14 10° N
SL-16 R/B 2.5 02:18:47 31° SSE 02:21:00 47° ESE 02:26:24 10° NE
Cosmos 2026 Rocket 4.0 02:21:40 10° N 02:27:51 70° E 02:30:41 34° SSE
Timation 2 Rocket 4.4 02:21:43 10° NNW 02:28:15 63° WSW 02:32:04 27° S
NOSS 2-1 (E) 2.9 02:29:29 60° ENE 02:29:29 60° ENE 02:32:13 10° NE
Cosmos 1862 Rocket 4.1 02:28:51 39° ESE 02:29:16 40° E 02:33:27 10° NNE
ATLAS 3B R/B 3.5 02:23:38 10° NNW 02:30:45 48° NE 02:35:06 24° ESE
BREEZE M DEB (TANK) 4.2 02:29:43 10° WNW 02:34:19 85° NNE 02:47:28 18° ESE
Cosmos 1441 Rocket 4.3 02:35:54 30° ENE 02:35:54 30° ENE 02:38:31 10° NNE
Cosmos 1346 Rocket 2.7 02:36:33 62° SSE 02:37:06 76° E 02:41:07 10° NNE
Meteor 1-18 Rocket 4.4 02:34:06 21° SSW 02:38:01 74° W 02:43:40 10° N
Meteor 2-8 Rocket 4.3 02:37:05 32° S 02:40:05 79° E 02:46:11 10° N
Gblst 52 Del rocket 4.4 02:36:06 10° SW 02:42:57 66° SE 02:48:56 10° ENE
Resurs 01 Rocket 4.1 02:40:37 10° SW 02:43:06 15° W 02:45:36 10° WNW
SPOT 5 3.3 02:43:22 35° S 02:45:32 63° W 02:50:40 10° NNW
Terra 1.7 02:44:34 50° SSE 02:45:49 89° W 02:50:36 10° NNW
Cosmos 2360 Rocket 2.9 02:45:49 33° ESE 02:45:50 33° ESE 02:50:50 10° NE
Cosmos 2292 Rocket 3.5 02:45:12 10° NNW 02:47:45 47° WNW 02:47:45 47° WNW
Iridium 2 4.5 02:45:14 10° NNE 02:48:20 38° ENE 02:48:20 38° ENE
Cosmos 2263 Rocket 2.4 02:46:58 10° NNW 02:52:27 59° WSW 02:54:16 39° SSW
Cosmos 1378 4.4 02:52:06 29° WSW 02:53:12 37° WNW 02:56:38 10° N
ISS -3.2 02:50:11 10° NW 02:53:04 57° NNW 02:53:04 57° NNW
Meteor 2-15 4.4 02:52:59 35° S 02:55:46 85° W 03:01:52 10° N
Cosmos 990 Rocket 4.0 02:57:52 55° SE 02:58:35 61° ESE 03:03:46 10° NNE
Okean 1-7 4.0 03:07:49 34° ENE 03:07:49 34° ENE 03:11:09 10° NNE
Cosmos 2279 Rocket 3.9 03:07:07 42° S 03:09:24 87° W 03:15:39 10° N
Cosmos 1066 Rocket 4.2 03:10:46 55° SSE 03:12:03 76° E 03:17:44 10° NNE
Cosmos 1898 Rocket 3.6 03:12:30 54° ESE 03:12:38 54° ESE 03:17:49 10° NNE
Iridium 4 Rocket 4.2 03:08:49 10° NNE 03:13:02 35° E 03:13:02 35° E
Cosmos 1805 3.7 03:10:43 10° N 03:13:59 53° NE 03:13:59 53° NE
Transit 2A Rocket 4.5 03:12:16 10° NNW 03:16:30 72° W 03:16:30 72° W
SL-24 R/B - RUBIN 2 3.8 03:13:44 10° NW 03:18:06 59° WSW 03:18:06 59° WSW
USA 215 3.2 03:17:31 10° NE 03:24:00 60° SE 03:25:34 48° S
ARIANE 5 R/B 3.4 03:23:46 40° WSW 03:24:11 42° W 03:28:27 10° NNW
ATLAS CENTAUR R/B 3.3 03:20:29 10° NNW 03:24:35 27° NE 03:25:48 24° ENE
Cosmos 2322 Rocket 2.3 03:23:15 40° SW 03:25:19 72° WNW 03:30:56 10° NNE
BREEZE-M DEB (TANK) 2.5 03:23:50 10° NW 03:26:21 73° N 03:26:21 73° N
Cosmos 1733 3.8 03:22:55 10° N 03:25:54 54° N 03:25:54 54° N
Cosmos 1766 4.3 03:26:14 10° N 03:29:11 39° NE 03:29:11 39° NE
Cosmos 2333 Rocket 2.7 03:31:12 43° E 03:31:12 43° E 03:36:07 10° NE
Cosmos 1844 Rocket 2.8 03:26:33 10° NNW 03:32:06 61° ENE 03:32:53 55° E
Cosmos 44 Rocket 4.2 03:32:18 10° NW 03:36:16 34° WSW 03:36:16 34° WSW
Meteor 1-4 Rocket 3.8 03:33:12 10° NNW 03:35:33 38° NW 03:35:33 38° NW
Cosmos 1703 Rocket 3.8 03:39:39 65° NNE 03:39:39 65° NNE 03:43:32 10° N
Meteor 1-23 Rocket 4.2 03:40:45 63° ESE 03:41:13 66° E 03:47:00 10° NNE
Cosmos 2219 Rocket 2.7 03:49:49 45° E 03:49:49 45° E 03:54:34 10° NE
Cosmos 372 Rocket 4.2 03:51:00 56° ENE 03:51:00 56° ENE 03:55:32 10° NNE
ERS-2 4.3 03:48:43 10° NNE 03:50:03 19° NE 03:50:03 19° NE
Cosmos 1844 3.6 03:50:42 10° NNW 03:56:33 81° ENE 03:57:04 73° SE
Cosmos 1782 Rocket 4.1 03:52:41 10° N 03:56:17 55° NNE 03:56:17 55° NNE
USA 267 4.5 03:52:01 10° E 03:57:56 38° NNE 04:03:50 10° NW
Intercosmos 25 4.3 03:52:51 10° N 04:00:58 70° ENE 04:01:35 65° ESE
Cosmos 1726 3.6 04:00:00 10° NNW 04:02:17 36° NNW 04:02:17 36° NNW
SL-16 R/B 4.0 04:00:35 10° WSW 04:05:18 27° NW 04:10:03 10° N
Cosmos 1470 4.2 04:02:19 10° N 04:04:47 33° NNE 04:04:47 33° NNE
Cosmos 1908 Rocket 4.4 04:03:43 10° NNW 04:07:12 42° WNW 04:07:12 42° WNW
Cosmos 1300 Rocket 4.4 04:08:35 10° N 04:11:58 43° NE 04:11:58 43° NE
Cosmos 2242 Rocket 4.1 04:13:47 56° NW 04:13:47 56° NW 04:17:50 10° N
ALOS 2 3.2 04:14:10 55° NNE 04:14:10 55° NNE 04:17:48 10° N
Cosmos 1655 Rocket 4.2 04:12:03 10° NNW 04:18:07 56° W 04:18:59 51° WSW
Cosmos 1626 4.5 04:20:39 17° NE 04:20:39 17° NE 04:21:54 10° NNE
Cosmos 2237 Rocket 3.9 04:20:21 20° E 04:20:21 20° E 04:23:32 10° NE
Okean 2 Rocket 4.5 04:16:34 10° NNE 04:20:07 31° ENE 04:20:07 31° ENE
ATLAS 3B R/B 3.5 04:14:34 10° NW 04:21:26 41° WSW 04:22:21 39° SW
COSMOS 2428 2.8 04:23:47 63° E 04:23:47 63° E 04:29:04 10° NNE
Cosmos 1937 Rocket 4.1 04:23:08 45° W 04:23:49 48° WNW 04:28:55 10° N
CZ-4C R/B 3.5 04:18:11 10° NNW 04:25:23 55° NE 04:29:39 30° ESE
Cosmos 2360 Rocket 3.5 04:27:32 26° W 04:29:45 35° WNW 04:34:54 10° N
NOSS 3-1 (C) 4.1 04:25:23 10° NNW 04:33:04 81° NE 04:36:05 46° SE
In-Cosmos 22 4.1 04:34:14 72° E 04:34:14 72° E 04:39:36 10° NNE
Cosmos 1867 3.5 04:35:35 79° NE 04:35:35 79° NE 04:40:46 10° NNE
Meteor 1-21 4.1 04:41:33 85° S 04:41:43 89° E 04:47:34 10° N
Sich 1 Rocket 4.2 04:42:57 10° N 04:46:22 53° N 04:46:22 53° N
Nimbus 7 Rocket 4.4 04:42:09 10° NNE 04:48:00 66° ESE 04:48:07 66° ESE
Cosmos 2278 Rocket 3.2 04:47:28 10° N 04:52:46 39° ENE 04:54:16 33° E
SL-08 R/B 4.4 04:48:05 10° N 04:54:23 77° E 04:55:04 69° SE
Cosmos 1818 4.4 04:50:33 10° NW 04:54:36 38° W 04:54:36 38° W
Okean 1 Rocket 4.4 04:52:17 10° N 04:55:52 33° ENE 04:55:52 33° ENE
Cosmos 1461 4.0 04:56:03 10° NNW 04:58:53 42° NNW 04:58:53 42° NNW
Cosmos 371 Rocket 4.0 05:02:45 47° ENE 05:02:45 47° ENE 05:06:37 10° NNE
Lacrosse 5 3.8 05:04:31 19° E 05:04:31 19° E 05:06:36 10° ENE
ATLAS CENTAUR R/B 3.1 04:59:01 10° NW 05:01:48 30° WNW 05:01:48 30° WNW
USA 215 4.2 05:00:42 10° NE 05:06:52 45° NNW 05:12:52 11° W
SL-16 R/B 4.1 05:07:55 16° E 05:07:57 16° E 05:11:22 10° ENE
Cosmos 1417 Rocket 4.3 05:10:23 76° S 05:10:56 88° E 05:17:10 10° N
Cosmos 1980 3.8 05:11:35 60° E 05:11:35 60° E 05:16:56 10° NNE
ADEOS Rocket 3.0 05:13:15 55° W 05:13:15 55° W 05:18:59 10° NNW
Cosmos 1674 Rocket 4.2 05:14:23 52° N 05:14:23 52° N 05:17:42 10° N
Cosmos 2333 Rocket 3.8 05:13:10 22° W 05:15:12 28° NW 05:20:02 10° N
ASTEX 1 3.6 05:12:03 10° N 05:16:31 66° NW 05:16:31 66° NW
USA 308 3.9 05:27:57 43° NNE 05:27:57 43° NNE 05:30:56 10° NE
Cosmos 1378 Rocket 4.3 05:28:59 50° NNW 05:28:59 50° NNW 05:32:32 10° N
Cosmos 1300 4.2 05:25:52 10° N 05:28:26 33° NE 05:28:26 33° NE
Cosmos 1709 Rocket 4.2 05:26:12 10° N 05:32:16 61° E 05:33:27 52° SE
Cosmos 2219 Rocket 3.8 05:31:30 22° W 05:33:23 26° NW 05:38:01 10° N
Cosmos 2150 Rocket 4.0 05:33:55 72° WNW 05:33:55 72° WNW 05:39:00 10° NNE
Cosmos 2315 Rocket 4.2 05:33:04 55° SE 05:34:07 63° E 05:40:25 10° NNE
Cosmos 1386 Rocket 4.3 05:31:12 10° NNW 05:37:13 72° W 05:37:41 68° SW
Cosmos 494 Rocket 4.2 05:32:21 10° NNW 05:36:47 59° WNW 05:36:47 59° WNW
SL-14 R/B 4.4 05:39:35 41° N 05:39:35 41° N 05:42:13 10° N
Cosmos 1048 Rocket 4.3 05:33:41 10° NNW 05:38:01 52° WNW 05:38:01 52° WNW
S3M 4.0 05:38:12 61° SW 05:39:05 69° W 05:45:27 10° N
USA 267 3.1 05:38:54 53° SSE 05:40:35 78° SW 05:47:09 10° NW
CZ-2D R/B 3.5 05:39:31 10° NE 05:44:01 27° E 05:44:50 26° ESE
Cosmos 1125 Rocket 3.8 05:44:18 55° WNW 05:44:27 55° WNW 05:49:34 10° N
Meteor 1-16 Rocket 4.3 05:39:11 10° NNW 05:45:02 62° W 05:45:16 61° WSW
NOSS 2-2 (C) 4.4 05:41:19 10° NW 05:46:45 87° WSW 05:48:31 53° SSE
Cosmos 405 Rocket 4.5 05:48:25 25° NW 05:48:25 25° NW 05:50:37 10° N
Cosmos 1975 Rocket 3.7 05:48:04 49° ENE 05:48:04 49° ENE 05:52:01 10° NNE
USA 305 3.9 05:49:28 39° NNW 05:49:30 39° NNW 05:53:27 10° NE
USA 229 DEB 3.8 05:42:47 10° NW 05:50:15 77° WSW 05:52:46 47° SSE
USA 229 3.8 05:42:53 10° NW 05:50:21 78° WSW 05:52:53 47° SSE
Cosmos 1025 Rocket 3.9 05:50:45 41° E 05:50:45 41° E 05:54:28 10° NNE
Cosmos 839 Rocket 4.2 05:47:48 10° NNW 05:54:19 87° WSW 05:57:08 42° SSE
Cosmos 1437 Rocket 4.5 05:52:55 10° NNW 05:54:47 25° NW 05:54:47 25° NW
Meteor 2-5 Rocket 4.1 05:57:39 50° SE 05:58:38 57° E 06:04:11 10° NNE
Lacrosse 5 rocket 2.8 06:01:10 27° ENE 06:01:10 27° ENE 06:03:22 10° ENE
Cosmos 2237 Rocket 2.5 06:02:09 50° W 06:03:02 55° WNW 06:08:39 10° NNE
Cosmos 332 Rocket 3.8 06:04:18 72° WNW 06:04:18 72° WNW 06:09:01 10° NNE
Cosmos 1953 3.9 06:04:54 10° NNW 06:07:09 26° NW 06:07:09 26° NW
Resurs 1-4 Rocket 2.6 06:04:15 10° NNE 06:09:20 47° E 06:10:14 43° SE
CZ-4 R/B 4.4 06:05:58 10° NNE 06:10:25 44° E 06:10:45 43° ESE
GP-B 3.2 06:07:41 10° N 06:11:45 67° NW 06:11:45 67° NW
CZ-4C R/B 3.5 06:06:57 10° NW 06:14:00 40° WSW 06:14:45 39° SW
NOSS 3-1 (A) 4.5 06:09:25 10° NW 06:16:51 46° WSW 06:18:25 42° SW
Cosmos 1943 Rocket 2.8 06:14:29 10° NNW 06:20:04 53° ENE 06:23:41 21° SE
Cosmos 1544 Rocket 4.3 06:15:47 10° N 06:20:04 47° E 06:20:48 42° ESE
IDEFIX/ARIANE 42P 4.2 06:17:01 10° NE 06:21:24 26° E 06:23:29 20° SE
ADEOS II 3.3 06:18:00 10° NNE 06:22:42 32° E 06:24:27 26° SE
Thor Agena Rocket 3.6 06:20:01 10° N 06:25:15 65° WNW 06:26:03 57° WSW
MOS 1 Rocket 4.3 06:31:06 25° ESE 06:32:57 37° ENE 06:36:54 10° N
Cosmos 2278 Rocket 3.2 06:31:48 10° NW 06:36:05 29° W 06:36:05 29° W
NPP 3.6 06:39:05 10° NNE 06:44:30 81° ESE 06:46:05 48° S
Lacrosse 5 2.3 06:43:42 41° W 06:45:09 57° NW 06:50:11 10° NE
Cosmos 2084 Rocket 4.4 06:45:29 30° WNW 06:45:47 31° NW 06:49:13 10° NNE
ATLAS 5 CENTAUR R/B 4.0 06:40:47 10° NW 06:45:39 22° W 06:45:39 22° W
Cosmos 2154 Rocket 4.4 06:41:22 10° N 06:47:39 61° E 06:51:57 21° SSE
Cosmos 2369 Rocket 3.6 06:44:45 10° N 06:49:53 36° ENE 06:55:00 10° SE
SL-16 R/B 2.3 06:49:47 46° SW 06:51:24 67° WNW 06:57:05 10° NNE
Cosmos 1455 2.0 06:49:03 10° N 06:52:46 84° E 06:52:49 83° ESE
SME Rocket 3.8 06:58:11 36° W 06:58:11 36° W 07:02:16 10° NNW
AQUA 3.7 06:55:25 10° NNE 07:00:12 88° E 07:01:35 48° SSW
Cosmos 1269 Rocket 4.2 06:55:42 10° NNW 07:00:48 51° WSW 07:01:45 45° SW
Cosmos 1271 Rocket 3.3 06:57:53 10° N 07:01:40 54° E 07:03:04 34° SE
SL-16 R/B 2.4 07:01:09 30° S 07:04:28 76° WSW 07:10:44 10° NNW
Iridium 82 4.4 07:05:47 71° SSE 07:06:08 84° E 07:09:40 10° N
Cosmos 2228 4.0 07:02:03 10° N 07:06:16 45° E 07:09:09 18° SE
Cosmos 2074 Rocket 4.0 07:04:02 10° NNW 07:10:15 63° W 07:13:08 32° SSW
SAR-Lupe-2 3.6 07:11:29 10° N 07:15:01 58° WNW 07:15:21 55° W
Cosmos 1603 4.5 07:12:00 22° SSE 07:15:10 44° ESE 07:20:31 10° NE
Cosmos 1295 Rocket 4.5 07:09:08 10° N 07:15:30 88° W 07:19:56 21° S
Meteor 1-24 Rocket 4.5 07:14:10 30° WSW 07:15:52 36° WNW 07:20:53 10° N
Cosmos 1536 Rocket 3.7 07:16:40 45° SW 07:17:45 59° W 07:22:06 10° N
COSMOS 2455 2.9 07:18:09 33° SW 07:20:56 69° WNW 07:26:59 10° NNE
Cosmos 292 Rocket 3.8 07:20:54 39° SW 07:22:35 64° WNW 07:27:22 10° NNE
DNEPR-1 R/B 4.1 07:21:45 31° S 07:23:18 46° ESE 07:27:36 10° NE
CZ-2D R/B 2.9 07:19:12 10° N 07:24:07 38° WNW 07:26:09 27° WSW
Cosmos 2184 Rocket 4.3 07:20:33 10° NNW 07:26:29 48° W 07:29:21 28° SSW
Cosmos 1610 Rocket 4.4 07:23:09 10° NNW 07:29:16 71° W 07:33:27 21° S
GPS 2-04 Rocket1 4.1 07:31:42 20° SSE 07:31:42 20° SSE 07:33:47 10° ESE
Cosmos 1328 4.4 07:31:01 22° SSE 07:33:17 54° E 07:37:11 10° NNE
MSX 3.8 07:30:44 10° NNE 07:36:32 86° WNW 07:40:20 23° SSW
Helios 1B rocket 3.8 07:33:59 10° NNE 07:37:43 34° E 07:41:04 12° SSE
Lacrosse 5 rocket 2.9 07:36:40 17° W 07:38:48 26° NNW 07:42:17 10° NNE
Cosmos 1606 Rocket 3.6 07:38:45 10° N 07:43:11 78° E 07:47:12 12° SSE
Cosmos 962 Rocket 4.4 07:37:11 10° N 07:43:21 90° SSE 07:49:28 10° S
OAO 2 Rocket 4.1 07:42:53 26° SSW 07:44:30 32° SSE 07:48:54 10° ESE
Cosmos 1943 3.2 07:41:37 24° SSW 07:45:12 88° ESE 07:50:56 10° NNE
Cosmos 2181 Rocket 4.3 07:40:26 10° S 07:46:30 65° E 07:52:36 10° NNE
Cosmos 1703 3.9 07:45:42 30° WSW 07:46:58 39° WNW 07:50:41 10° N
Resurs 1-4 Rocket 3.6 07:44:48 10° NNW 07:48:48 22° WNW 07:51:19 16° W
EO 1 Del DPAF 4.0 07:48:20 10° N 07:51:30 32° WNW 07:52:35 26° WSW
Meteor 2-1 Rocket 4.2 07:47:18 10° N 07:53:05 89° W 07:58:41 10° S
Helios 1A 3.5 07:51:32 25° SSW 07:53:26 41° W 07:57:26 10° NNW
ARIANE 5 R/B 4.2 07:50:46 10° NE 07:55:09 29° E 07:59:29 10° SSE
NOSS 3-3 (A) 3.9 07:52:29 22° SW 07:56:10 73° NW 08:02:32 10° NNE
NOSS 3-3 (C) 3.9 07:52:35 22° SW 07:56:16 73° NW 08:02:38 10° NNE
CBERS-1 4.1 07:53:36 10° NNE 07:58:44 78° ESE 08:03:21 13° S
Lacrosse 4 Rocket 3.3 07:55:54 10° SSE 07:59:28 25° ESE 08:02:58 10° NE
IDEFIX/ARIANE 42P 3.3 07:56:11 10° N 08:01:02 38° WNW 08:04:17 19° SW
ADEOS II 3.1 07:57:42 10° N 08:02:17 31° WNW 08:05:23 17° WSW
Cosmos 1943 Rocket 3.4 07:59:11 10° NW 08:03:21 21° W 08:05:07 18° SW
Cosmos 2056 Rocket 3.8 07:59:06 13° S 08:03:38 66° ESE 08:08:51 10° NNE
BREEZE-M DEB (TANK) 3.7 08:02:27 21° SSW 08:04:16 47° SE 08:11:25 10° ENE
Cosmos 1408 3.2 08:01:10 11° S 08:04:37 54° E 08:08:10 10° NNE
FENGYUN 3A 4.2 08:00:20 10° NNE 08:05:38 58° E 08:10:56 10° S
Meteor 1-28 Rocket 4.5 08:06:02 20° WSW 08:06:49 22° W 08:09:46 10° NW
Cosmos 1892 3.5 08:03:18 10° S 08:06:58 50° E 08:10:37 10° NNE
SL-19 R/B 4.4 08:02:49 10° NNE 08:08:55 82° WNW 08:14:16 12° SSW
ALOS 3.0 08:06:43 10° NNE 08:11:16 52° E 08:15:48 10° S
Cosmos 2263 4.2 08:06:10 10° NNW 08:11:49 69° WSW 08:17:30 10° SSE
IRS-1D 3.9 08:07:04 10° N 08:12:14 51° WNW 08:16:22 15° SW
Cosmos 2251 Rocket 3.9 08:10:16 10° NNW 08:15:11 41° WSW 08:20:07 10° S
Cosmos 1892 Rocket 3.7 08:13:50 15° SSW 08:17:29 59° W 08:21:56 10° N
Cosmos 1190 Rocket 4.2 08:13:43 10° NNW 08:19:02 79° ENE 08:24:21 10° SSE
Cosmos 1726 Rocket 3.8 08:17:57 10° NNW 08:22:12 49° W 08:26:25 10° SSW
Cosmos 2366 rocket 4.0 08:21:04 10° NNW 08:27:12 71° W 08:33:21 10° S
Lacrosse 5 4.1 08:25:39 10° WNW 08:29:06 18° NNW 08:32:34 10° NNE
CZ-2C R/B 2.6 08:24:18 10° NNE 08:29:25 78° ESE 08:34:21 10° S
Cosmos 2341 Rocket 4.4 08:25:24 10° NNW 08:31:25 45° W 08:37:25 10° SSW
PAYLOAD A 4.0 08:26:43 10° NNE 08:31:30 80° ESE 08:36:22 10° S
SL-8 Rocket 4.2 08:27:32 10° NNW 08:33:38 52° W 08:39:42 10° SSW
Cosmos 2369 Rocket 2.9 08:28:55 10° NW 08:33:48 32° WSW 08:38:39 10° SSW
IRS-P3 4.3 08:29:59 10° NNE 08:35:21 80° ESE 08:40:41 10° S
Cosmos 1656 Rocket 4.1 08:30:35 10° NW 08:35:33 38° WSW 08:40:30 10° S
SL-16 R/B 4.4 08:34:44 10° WNW 08:36:39 12° NW 08:38:35 10° NNW
Meteor 1-29 3.3 08:34:30 10° NNE 08:37:45 62° ESE 08:40:58 10° S
Cosmos 676 Rocket 4.5 08:32:29 10° NNW 08:37:49 69° ENE 08:43:07 10° SSE
BREEZE-M DEB (TANK) 3.3 08:44:02 10° W 08:47:53 35° NNW 08:50:01 10° NE
In-Cosmos 22 Rocket 4.3 08:42:51 10° SSW 08:48:38 78° W 08:54:30 10° N
SL-16 R/B 4.4 08:48:50 10° W 08:49:00 10° W 08:49:11 10° W
Cosmos 1420 Rocket 4.1 08:44:44 10° SSW 08:49:50 60° WNW 08:55:00 10° NNE
SL-08 R/B 3.6 08:49:48 10° SSE 08:54:22 72° ENE 08:59:01 10° N
Meteor 1-27 4.3 08:50:24 10° N 08:56:11 84° W 09:01:50 10° S
CZ-3 R/B 4.0 08:52:45 10° W 09:28:55 50° SSW 09:38:21 10° SE
